Victor, MT (59875)

11:45 PM MST on February 07, 2016 (GMT -0700)
Dutch Hill | | Change Station
CLOSE
Current Station
Personal Weather Station
Location: Hamilton, MT
Elevation: 3668 ft
Nearby Weather Stations

Elev 3668 ft 46.31 °N, 114.18 °W | Updated 8 seconds ago

Overcast
Overcast
27.1 °F
Feels Like 27 °F
N
0.0
Wind Variable Wind from SE
Gusts 0.0 mph

Today
High -- | Low -- °F
--% Chance of Precip.
Yesterday
High -- | Low -- °F
Precip. -- in
Pressure 30.73 in
Visibility -9999.0 miles
Clouds Overcast 5500 ft
Windchill 27 °F
Dew Point 8 °F
Humidity 44%
Rainfall Not available.
Snow Depth Not available.
7:52 AM 5:49 PM
Waning Crescent, 0% visible
METAR KMSO 080553Z 17005KT OVC055 01/M03 A3062 RMK AO2 SLP404 T00061028 10028 20006 53001 $
Pressure 30.73 in
Visibility -9999.0 miles
Clouds Overcast 5500 ft
Windchill 27 °F
Dew Point 8 °F
Humidity 44%
Rainfall Not available.
Snow Depth Not available.
7:52 AM 5:49 PM
Waning Crescent, 0% visible
METAR KMSO 080553Z 17005KT OVC055 01/M03 A3062 RMK AO2 SLP404 T00061028 10028 20006 53001 $

10-Day Weather Forecast

Almanac

Astronomy

Feb. 07, 2016 Rise Set
Actual Time
Civil Twilight
Nautical Twilight
Astronomical Twilight
Moon
Length of Visible Light
Length of Day
Tomorrow will be .
, % of the Moon is Illuminated

Today's Extremes

State Highs State Lows

Community

WunderPhotos

Upload Photos

1,891,395 photos uploaded!

WunderBlog® & News

Nearby

Air Quality

  Air Quality AQ Index Pollutant
Not available.

Snow Depth

Station Depth Elevation

Earthquake Activity

City Distance Mag. Time & Date
Minimum magnitude displayed is 2.5.

Coastal Water Temperatures

Place Temperature

Stations

Nearby Weather Stations

Station Location Temp. Windchill Dew Point Humidity Wind Precip. Elev Updated Type
                   

Watches & Warnings

There are currently no watches in effect.